PSLV R/B, 40548

Orbit data source: Space-Track

PSLV R/B, 40548 is space debris in HEO originally from a launch on Sat, 28 Mar 2015 UTC launched from the Sirharikota (SRI). Debris objects in space refer to the collection of defunct objects orbiting the Earth. Examples of debris include non-operational satellites, rocket bodies, and fragments generated from explosions, collisions, or faulty payload assembly.

Loading next visibility...
PSLV R/B details
Identifier
40548, 2015-018B
Orbit
HEO
Last TLE update10 hours ago
Origin
Flag of INISRO (IN / IND)
ManufacturerVSSC/LPSC
MissionSpacecraft
Bus & MotorPS-4, Unknown motor
Mass920 kg wet, 920 kg dry
Launch date (UTC)
2015-03-28 (10 years ago)
Launch vehicleUnknown
Launch site
Sirharikota (SRI)
Object type
Payload
Rocket body
Debris
Shape & HBRCyl + Cyl + 2 Nozzle, 3.238 m
Radar Cross Section5.812 m², Large (>1 m²)

Expand to show TLE details & history

TLE from 10 hours ago
0 PSLV R/B
1 40548U 15018B   24347.96035468  .00005941  00000-0  11983-2 0  9990
2 40548  19.0536 296.6090 5806094  76.8392 338.9086  4.33083019144384
Epoch: 2024-12-12T23:02Z
Definitive object data (Epoch: 2024-12-12T23:02:54.644Z)
Latitude0.00003°
Longitude-131.26168°
Altitude2,935.215 km
Speed7.78 km/s
True Right ascension19h 46m 23s
True Declination0° 00' 00"
Sunlit
Object was in daylight at TLE epoch
Visualization TLE readout
Latitude-18.40419°
Longitude154.31101°
Altitude15,343.331 km
Speed3.411 km/s
Apparent Right ascension15h 34m 33s
Apparent Declination-25° 30' 06"
Sunlit
Object is in daylight
Visualization observer readout
Local Sidereal Time07:21:43
Azimuth90.986° ESE
Elevation-40.952°
Doppler factor1
Orbital elements
Apogee altitude18,757.913 km
Perigee altitude291.331 km
Semi-major axis15,902.759 km
Eccentricity0.5806094
Inclination19.0536°
RAAN296.609°
Arg. of periapsis76.8392°
True anomaly283.30321°
Mean anomaly338.9086°
Eccentric anomaly315.65688°
Mean motion1.08227 °/min
BSTAR0.0011983
Orbital period332.64 mins
Loading maneuver chart data...
Loading historical data...
Loading historical data...
Loading historical data...
Loading historical data...
Loading historical data...
Loading historical data...
Loading historical data...
Other satellites on launch #18 in the year 2015 (2015-03-28 UTC)

PSLV R/B Visibility forecast

Observer location: undefined°, undefined

Span
Click to sort rows by Start time (UTC) header in descending order
Start Az.
Max El. time (UTC)
Max El. Az.
Max El.
End time (UTC)
End Az.
198 mins2024-12-13 10:58:02.656Z220.894° SW2024-12-13 11:32:02.656Z183.98° SSW19.143°2024-12-13 14:16:02.656Z151.678° SSE
|